Content
SEND FEEDBACK

Daily
Averages
Monthly
Summary
United States of America

ACHANG BAY, GUAM


Home > North America > United States > Guam
Elevation: 10 meters     Latitude: 13 16N     Longitude: 144 45E

WEATHER
 
SELECT A DAY
Number of Records: 342,273;   Date Range: 1/1/95 - 8/30/14
 
SHARE

PRINT THIS DATA

[ ← Previous Day ]
WEATHER ALMANAC - 8 OCTOBER, 2013
[ Next Day → ]
[ °F ]   °C
We're sorry. There is no daily almanac available for Achang Bay, Guam on 8 October, 2013.
WEATHER BY HOUR - 8 OCTOBER, 2013
[ °F ]   °C
Local TimeTemperatureDewpointHumidityBarometerVisibilityWind DirectionWind SpeedGust SpeedPrecipitationEventsConditions
1:58 AM20.4 °C20 °C98 %1002 hPa16.1 kmCalmClear
2:58 AM20.5 °C20.2 °C98 %1001.7 hPa16.1 kmCalmClear
3:58 AM25 °C21.5 °C81 %1001.7 hPa16.1 kmWest (270°)5.6 km/hClear
4:58 AM25 °C21.1 °C79 %1001.7 hPa16.1 kmCalmClear
5:58 AM24.4 °C24.1 °C98 %1002.4 hPa16.1 kmCalmClear
6:58 AM24 °C23.7 °C98 %1003 hPa16.1 kmCalmClear
7:58 AM27 °C24 °C84 %1003.4 hPa16.1 kmCalmClear
8:58 AM27.9 °C25.1 °C85 %1004.1 hPa16.1 kmNorth (360°)3.7 km/hPartly Cloudy
9:58 AM28.9 °C25.4 °C81 %1004.1 hPa12.9 kmCalmPartly Cloudy
10:58 AM28.3 °C24.6 °C80 %1003.4 hPa16.1 kmVariable7.4 km/hClear
11:58 AM29.3 °C25.2 °C78 %1002.7 hPa16.1 kmNorth (350°)14.8 km/hPartly Cloudy
12:58 PM28.6 °C24.9 °C80 %1002 hPa16.1 kmNNW (340°)16.7 km/hClear
1:58 PM28.6 °C24.1 °C76 %1001.4 hPa16.1 kmNNW (330°)11.1 km/hPartly Cloudy
2:58 PM28.3 °C24.1 °C78 %1001.4 hPa16.1 kmNW (320°)9.3 km/hClear
3:20 PM28 °C25 °C84 %1005.4 hPa16.1 kmNNW (340°)5.6 km/hLight Drizzle
3:28 PM28 °C24 °C79 %1005.4 hPa16.1 kmNNW (340°)7.4 km/hClear
3:58 PM26.3 °C23 °C82 %1001.7 hPa16.1 kmNNW (340°)9.3 km/h0 mmClear
4:58 PM27.6 °C24.5 °C83 %1002 hPa16.1 kmNNW (340°)9.3 km/hClear
5:58 PM27.2 °C24.9 °C87 %1002.4 hPa16.1 kmNW (310°)3.7 km/hClear
6:58 PM26.8 °C24.8 °C89 %1002.7 hPa16.1 kmNW (320°)5.6 km/hScattered Clouds
7:58 PM26.2 °C24.7 °C91 %1003 hPa16.1 kmNNE (20°)3.7 km/hClear
8:58 PM26 °C24.8 °C93 %1006.8 hPa16.1 kmCalmClear
9:58 PM25.8 °C24.8 °C94 %1007.1 hPa16.1 kmNW (320°)3.7 km/hClear
10:58 PM25.6 °C24.8 °C95 %1006.8 hPa16.1 kmCalmClear
11:58 PM25.4 °C24.5 °C95 %1006.8 hPa16.1 kmWSW (250°)5.6 km/hClear
Hourly data recorded from PGUA, located 0 kilometers away from Achang Bay, Guam







STORIES FROM OUR PARTNERS